Time,TemperatureF,DewpointF,PressureIn,WindDirection,WindDirectionDegrees,WindSpeedMPH,WindSpeedGustMPH,Humidity,HourlyPrecipIn,Conditions,Clouds,dailyrainin,SoftwareType,DateUTC
2013-03-26 00:01:00,69.4,16.0,29.86,ESE,110,0.0,0.0,13,0.00,,,0.00,weatherlink.com 1.10,2013-03-26 07:01:00,
2013-03-26 00:16:00,68.9,16.0,29.86,East,86,2.0,2.0,13,0.00,,,0.00,weatherlink.com 1.10,2013-03-26 07:16:00,
2013-03-26 00:31:00,69.4,16.0,29.85,ENE,78,3.0,4.0,13,0.00,,,0.00,weatherlink.com 1.10,2013-03-26 07:31:00,
2013-03-26 00:46:00,68.8,16.0,29.85,ENE,59,3.0,5.0,13,0.00,,,0.00,weatherlink.com 1.10,2013-03-26 07:46:00,
2013-03-26 01:01:00,69.3,16.0,29.85,NE,53,3.0,4.0,13,0.00,,,0.00,weatherlink.com 1.10,2013-03-26 08:01:00,
2013-03-26 01:31:00,70.0,15.0,29.84,East,84,4.0,5.0,12,0.00,,,0.00,weatherlink.com 1.10,2013-03-26 08:31:00,
2013-03-26 02:02:00,69.0,16.0,29.84,ENE,72,5.0,6.0,13,0.00,,,0.00,weatherlink.com 1.10,2013-03-26 09:02:00,
2013-03-26 02:16:00,70.0,15.0,29.83,ENE,64,3.0,6.0,12,0.00,,,0.00,weatherlink.com 1.10,2013-03-26 09:16:00,
2013-03-26 02:32:00,70.7,16.0,29.82,ENE,74,3.0,6.0,12,0.00,,,0.00,weatherlink.com 1.10,2013-03-26 09:32:00,
2013-03-26 02:47:00,70.1,17.0,29.82,East,87,2.0,4.0,13,0.00,,,0.00,weatherlink.com 1.10,2013-03-26 09:47:00,
2013-03-26 03:02:00,69.3,16.0,29.82,East,96,2.0,5.0,13,0.00,,,0.00,weatherlink.com 1.10,2013-03-26 10:02:00,
2013-03-26 03:17:00,69.6,17.0,29.81,NE,53,3.0,7.0,13,0.00,,,0.00,weatherlink.com 1.10,2013-03-26 10:17:00,
2013-03-26 03:32:00,70.6,15.0,29.81,NE,53,4.0,8.0,12,0.00,,,0.00,weatherlink.com 1.10,2013-03-26 10:32:00,
2013-03-26 03:47:00,70.7,16.0,29.80,ENE,75,6.0,7.0,12,0.00,,,0.00,weatherlink.com 1.10,2013-03-26 10:47:00,
2013-03-26 04:02:00,71.9,14.0,29.80,NE,56,7.0,12.0,11,0.00,,,0.00,weatherlink.com 1.10,2013-03-26 11:02:00,
2013-03-26 04:17:00,72.0,15.0,29.81,NE,53,6.0,9.0,11,0.00,,,0.00,weatherlink.com 1.10,2013-03-26 11:17:00,
2013-03-26 04:32:00,70.4,15.0,29.81,East,96,3.0,6.0,12,0.00,,,0.00,weatherlink.com 1.10,2013-03-26 11:32:00,
2013-03-26 04:47:00,69.9,17.0,29.81,ESE,109,3.0,6.0,13,0.00,,,0.00,weatherlink.com 1.10,2013-03-26 11:47:00,
2013-03-26 05:02:00,69.3,16.0,29.81,East,101,3.0,7.0,13,0.00,,,0.00,weatherlink.com 1.10,2013-03-26 12:02:00,
2013-03-26 05:17:00,68.8,16.0,29.81,ENE,62,5.0,8.0,13,0.00,,,0.00,weatherlink.com 1.10,2013-03-26 12:17:00,
2013-03-26 05:32:00,69.2,16.0,29.82,ESE,105,5.0,6.0,13,0.00,,,0.00,weatherlink.com 1.10,2013-03-26 12:32:00,
2013-03-26 05:47:00,69.0,16.0,29.82,SE,124,4.0,7.0,13,0.00,,,0.00,weatherlink.com 1.10,2013-03-26 12:47:00,
2013-03-26 06:03:00,69.8,17.0,29.82,East,87,6.0,6.0,13,0.00,,,0.00,weatherlink.com 1.10,2013-03-26 13:03:00,
2013-03-26 06:17:00,69.9,15.0,29.82,East,91,3.0,6.0,12,0.00,,,0.00,weatherlink.com 1.10,2013-03-26 13:17:00,
2013-03-26 06:32:00,69.9,15.0,29.82,ESE,122,3.0,7.0,12,0.00,,,0.00,weatherlink.com 1.10,2013-03-26 13:32:00,
2013-03-26 06:47:00,69.5,16.0,29.82,SE,131,3.0,7.0,13,0.00,,,0.00,weatherlink.com 1.10,2013-03-26 13:47:00,
2013-03-26 07:02:00,67.1,18.0,29.83,ESE,103,6.0,6.0,15,0.00,,,0.00,weatherlink.com 1.10,2013-03-26 14:02:00,
2013-03-26 07:17:00,66.9,18.0,29.83,ENE,75,4.0,8.0,15,0.00,,,0.00,weatherlink.com 1.10,2013-03-26 14:17:00,
2013-03-26 07:32:00,67.1,18.0,29.84,East,86,4.0,7.0,15,0.00,,,0.00,weatherlink.com 1.10,2013-03-26 14:32:00,
2013-03-26 07:47:00,67.7,18.0,29.84,ESE,111,2.0,5.0,15,0.00,,,0.00,weatherlink.com 1.10,2013-03-26 14:47:00,
2013-03-26 08:02:00,68.7,17.0,29.84,East,92,5.0,8.0,14,0.00,,,0.00,weatherlink.com 1.10,2013-03-26 15:02:00,
2013-03-26 08:17:00,69.4,20.0,29.84,ESE,115,5.0,7.0,15,0.00,,,0.00,weatherlink.com 1.10,2013-03-26 15:17:00,
2013-03-26 08:32:00,70.9,19.0,29.84,SE,136,3.0,5.0,14,0.00,,,0.00,weatherlink.com 1.10,2013-03-26 15:32:00,
2013-03-26 08:47:00,73.2,19.0,29.85,ESE,121,5.0,8.0,13,0.00,,,0.00,weatherlink.com 1.10,2013-03-26 15:47:00,
2013-03-26 09:02:00,74.9,17.0,29.84,ESE,112,9.0,14.0,11,0.00,,,0.00,weatherlink.com 1.10,2013-03-26 16:02:00,
2013-03-26 09:17:00,75.8,18.0,29.84,SE,136,6.0,17.0,11,0.00,,,0.00,weatherlink.com 1.10,2013-03-26 16:17:00,
2013-03-26 09:32:00,75.3,17.0,29.85,ENE,64,7.0,15.0,11,0.00,,,0.00,weatherlink.com 1.10,2013-03-26 16:32:00,
2013-03-26 10:02:00,76.2,18.0,29.85,East,94,12.0,16.0,11,0.00,,,0.00,weatherlink.com 1.10,2013-03-26 17:02:00,
2013-03-26 10:17:00,76.8,16.0,29.85,ENE,72,13.0,18.0,10,0.00,,,0.00,weatherlink.com 1.10,2013-03-26 17:17:00,
2013-03-26 10:32:00,77.6,19.0,29.84,East,94,10.0,19.0,11,0.00,,,0.00,weatherlink.com 1.10,2013-03-26 17:32:00,
2013-03-26 10:47:00,78.7,18.0,29.84,SE,124,9.0,19.0,10,0.00,,,0.00,weatherlink.com 1.10,2013-03-26 17:47:00,
2013-03-26 11:02:00,79.4,18.0,29.84,SSE,159,9.0,20.0,10,0.00,,,0.00,weatherlink.com 1.10,2013-03-26 18:02:00,
2013-03-26 11:17:00,79.5,18.0,29.84,East,96,11.0,19.0,10,0.00,,,0.00,weatherlink.com 1.10,2013-03-26 18:17:00,
2013-03-26 11:33:00,80.7,19.0,29.84,ESE,112,9.0,18.0,10,0.00,,,0.00,weatherlink.com 1.10,2013-03-26 18:33:00,
2013-03-26 11:48:00,80.6,17.0,29.83,ESE,110,8.0,17.0,9,0.00,,,0.00,weatherlink.com 1.10,2013-03-26 18:48:00,
2013-03-26 12:03:00,80.8,19.0,29.83,ENE,71,14.0,18.0,10,0.00,,,0.00,weatherlink.com 1.10,2013-03-26 19:03:00,
2013-03-26 12:18:00,81.3,20.0,29.83,ESE,115,8.0,14.0,10,0.00,,,0.00,weatherlink.com 1.10,2013-03-26 19:18:00,
2013-03-26 12:33:00,81.8,18.0,29.82,ESE,118,5.0,15.0,9,0.00,,,0.00,weatherlink.com 1.10,2013-03-26 19:33:00,
2013-03-26 12:48:00,83.2,19.0,29.82,ESE,105,9.0,16.0,9,0.00,,,0.00,weatherlink.com 1.10,2013-03-26 19:48:00,
2013-03-26 13:03:00,83.6,16.0,29.81,ESE,120,4.0,11.0,8,0.00,,,0.00,weatherlink.com 1.10,2013-03-26 20:03:00,
2013-03-26 13:18:00,84.3,17.0,29.80,ESE,116,8.0,12.0,8,0.00,,,0.00,weatherlink.com 1.10,2013-03-26 20:18:00,
2013-03-26 13:33:00,84.6,17.0,29.79,East,92,10.0,15.0,8,0.00,,,0.00,weatherlink.com 1.10,2013-03-26 20:33:00,
2013-03-26 13:48:00,85.8,18.0,29.79,South,179,2.0,16.0,8,0.00,,,0.00,weatherlink.com 1.10,2013-03-26 20:48:00,
2013-03-26 14:03:00,85.5,20.0,29.78,SSE,150,5.0,18.0,9,0.00,,,0.00,weatherlink.com 1.10,2013-03-26 21:03:00,
2013-03-26 14:18:00,86.6,21.0,29.77,SE,134,6.0,13.0,9,0.00,,,0.00,weatherlink.com 1.10,2013-03-26 21:18:00,
2013-03-26 14:33:00,87.4,19.0,29.77,South,179,6.0,20.0,8,0.00,,,0.00,weatherlink.com 1.10,2013-03-26 21:33:00,
2013-03-26 14:48:00,87.5,22.0,29.76,SW,219,5.0,12.0,9,0.00,,,0.00,weatherlink.com 1.10,2013-03-26 21:48:00,
2013-03-26 15:03:00,87.0,19.0,29.75,SSE,155,6.0,18.0,8,0.00,,,0.00,weatherlink.com 1.10,2013-03-26 22:03:00,
2013-03-26 15:18:00,86.8,21.0,29.75,SE,127,3.0,18.0,9,0.00,,,0.00,weatherlink.com 1.10,2013-03-26 22:18:00,
2013-03-26 15:33:00,86.8,21.0,29.74,South,175,6.0,14.0,9,0.00,,,0.00,weatherlink.com 1.10,2013-03-26 22:33:00,
2013-03-26 15:48:00,86.8,21.0,29.73,SSE,160,7.0,16.0,9,0.00,,,0.00,weatherlink.com 1.10,2013-03-26 22:48:00,
2013-03-26 16:03:00,87.6,22.0,29.73,ENE,76,8.0,17.0,9,0.00,,,0.00,weatherlink.com 1.10,2013-03-26 23:03:00,
2013-03-26 16:18:00,87.3,22.0,29.73,SSE,153,8.0,14.0,9,0.00,,,0.00,weatherlink.com 1.10,2013-03-26 23:18:00,
2013-03-26 16:33:00,87.3,22.0,29.72,ENE,60,0.0,13.0,9,0.00,,,0.00,weatherlink.com 1.10,2013-03-26 23:33:00,
2013-03-26 16:48:00,87.1,22.0,29.71,SSE,157,7.0,13.0,9,0.00,,,0.00,weatherlink.com 1.10,2013-03-26 23:48:00,
2013-03-26 17:03:00,86.7,21.0,29.71,SE,146,12.0,13.0,9,0.00,,,0.00,weatherlink.com 1.10,2013-03-27 00:03:00,
2013-03-26 17:18:00,86.6,24.0,29.71,SSE,153,5.0,14.0,10,0.00,,,0.00,weatherlink.com 1.10,2013-03-27 00:18:00,
2013-03-26 17:33:00,86.6,21.0,29.71,SSE,163,5.0,15.0,9,0.00,,,0.00,weatherlink.com 1.10,2013-03-27 00:33:00,
2013-03-26 17:48:00,85.9,23.0,29.71,ESE,119,7.0,12.0,10,0.00,,,0.00,weatherlink.com 1.10,2013-03-27 00:48:00,
2013-03-26 18:03:00,85.3,23.0,29.71,ESE,120,5.0,14.0,10,0.00,,,0.00,weatherlink.com 1.10,2013-03-27 01:03:00,
2013-03-26 18:18:00,84.8,20.0,29.71,ESE,119,4.0,11.0,9,0.00,,,0.00,weatherlink.com 1.10,2013-03-27 01:18:00,
2013-03-26 18:33:00,84.1,19.0,29.71,SSE,156,5.0,8.0,9,0.00,,,0.00,weatherlink.com 1.10,2013-03-27 01:33:00,
2013-03-26 18:48:00,83.2,21.0,29.71,SSE,147,5.0,7.0,10,0.00,,,0.00,weatherlink.com 1.10,2013-03-27 01:48:00,
2013-03-26 19:03:00,82.0,20.0,29.71,SSE,168,5.0,6.0,10,0.00,,,0.00,weatherlink.com 1.10,2013-03-27 02:03:00,
2013-03-26 19:18:00,81.2,20.0,29.71,ESE,122,3.0,8.0,10,0.00,,,0.00,weatherlink.com 1.10,2013-03-27 02:18:00,
2013-03-26 19:33:00,80.8,17.0,29.72,ESE,111,2.0,7.0,9,0.00,,,0.00,weatherlink.com 1.10,2013-03-27 02:33:00,
2013-03-26 19:48:00,79.9,16.0,29.72,East,92,4.0,4.0,9,0.00,,,0.00,weatherlink.com 1.10,2013-03-27 02:48:00,
2013-03-26 20:03:00,79.0,15.0,29.72,ENE,76,2.0,4.0,9,0.00,,,0.00,weatherlink.com 1.10,2013-03-27 03:03:00,
2013-03-26 20:18:00,78.3,15.0,29.73,ENE,66,4.0,5.0,9,0.00,,,0.00,weatherlink.com 1.10,2013-03-27 03:18:00,
2013-03-26 20:33:00,78.2,15.0,29.73,ENE,70,3.0,6.0,9,0.00,,,0.00,weatherlink.com 1.10,2013-03-27 03:33:00,
2013-03-26 20:48:00,76.9,14.0,29.73,ENE,61,5.0,6.0,9,0.00,,,0.00,weatherlink.com 1.10,2013-03-27 03:48:00,
2013-03-26 21:03:00,76.8,14.0,29.74,ENE,60,6.0,9.0,9,0.00,,,0.00,weatherlink.com 1.10,2013-03-27 04:03:00,
2013-03-26 21:18:00,76.8,14.0,29.74,ENE,60,7.0,9.0,9,0.00,,,0.00,weatherlink.com 1.10,2013-03-27 04:18:00,
2013-03-26 21:33:00,76.4,16.0,29.74,East,82,5.0,7.0,10,0.00,,,0.00,weatherlink.com 1.10,2013-03-27 04:33:00,
2013-03-26 21:49:00,76.1,16.0,29.75,NE,56,6.0,8.0,10,0.00,,,0.00,weatherlink.com 1.10,2013-03-27 04:49:00,
2013-03-26 22:04:00,75.6,15.0,29.75,NE,49,7.0,8.0,10,0.00,,,0.00,weatherlink.com 1.10,2013-03-27 05:04:00,
2013-03-26 22:19:00,75.8,15.0,29.75,ENE,65,5.0,8.0,10,0.00,,,0.00,weatherlink.com 1.10,2013-03-27 05:19:00,
2013-03-26 22:34:00,75.7,15.0,29.75,NE,51,4.0,8.0,10,0.00,,,0.00,weatherlink.com 1.10,2013-03-27 05:34:00,
2013-03-26 22:49:00,74.8,17.0,29.76,NE,55,4.0,7.0,11,0.00,,,0.00,weatherlink.com 1.10,2013-03-27 05:49:00,
2013-03-26 23:04:00,75.0,17.0,29.76,ENE,70,5.0,6.0,11,0.00,,,0.00,weatherlink.com 1.10,2013-03-27 06:04:00,
2013-03-26 23:19:00,75.0,17.0,29.76,NE,53,3.0,6.0,11,0.00,,,0.00,weatherlink.com 1.10,2013-03-27 06:19:00,
2013-03-26 23:34:00,74.4,18.0,29.76,ENE,58,4.0,6.0,12,0.00,,,0.00,weatherlink.com 1.10,2013-03-27 06:34:00,
2013-03-26 23:49:00,74.2,18.0,29.76,NE,55,2.0,6.0,12,0.00,,,0.00,weatherlink.com 1.10,2013-03-27 06:49:00,